Content
SEND FEEDBACK

Daily
Averages
Monthly
Summary
Kenya

MALINDI, KENYA


Home > Africa > Kenya
Elevation: 75 feet     Latitude: 03 14S     Longitude: 040 06E

WEATHER
 
SELECT A DAY
Number of Records: 24,670;   Date Range: 12/20/96 - 7/27/14
 
SHARE

PRINT THIS DATA

[ ← Previous Day ]
WEATHER ALMANAC - JANUARY 23, 2013
[ Next Day → ]
[ °C ]   °F
Weather ElementAverageHighLow
Temperature81.7 °F86 °F (2:00 pm)78.8 °F (1:00 am)
Dewpoint73.6 °F75.2 °F (11:00 am)71.6 °F (12:00 pm)
Humidity76.6 %84 % (10:00 pm)66 % (2:00 pm)
Barometer28.58 in29.95 in (9:00 am) (7:00 pm)
Wind Speed12.3 mph17.3 mph (3:00 pm)
Weather ElementAverage
Visibility6.2 mi
Wind DirectionENE (62.2 °)

Weather ElementTotal
Precipitation---
Cooling Degree Days17.4 (Base 65)
Growing Degree Days32.4 (Base 50)
Averaged from 23 records on January 23, 2013
WEATHER CONDITIONS BREAKOUT
WIND DIRECTION BREAKOUT
WEATHER BY HOUR - JANUARY 23, 2013
[ °C ]   °F
Local TimeTemperatureDewpointHumidityBarometerVisibilityWind DirectionWind SpeedGust SpeedPrecipitationEventsConditions
1:00 AM78.8 °F73.4 °F83 %29.89 in6.2 miENE (60°)12.7 mphScattered Clouds
2:00 AM78.8 °F73.4 °F83 %29.86 inNorthScattered Clouds
3:00 AM78.8 °F73.4 °F83 %29.86 in6.2 miENE (60°)9.2 mphScattered Clouds
4:00 AM78.8 °F73.4 °F83 %29.86 in6.2 miENE (60°)11.5 mphScattered Clouds
5:00 AM78.8 °F73.4 °F83 %29.89 in6.2 miENE (60°)10.4 mphScattered Clouds
6:00 AM78.8 °F73.4 °F83 %29.89 in6.2 miENE (60°)11.5 mphScattered Clouds
7:00 AM80.6 °F73.4 °F79 %29.92 in6.2 miEast (80°)5.8 mphScattered Clouds
8:00 AM82.4 °F73.4 °F74 %29.92 in6.2 miEast (80°)8.1 mphScattered Clouds
9:00 AM82.4 °F73.4 °F74 %29.95 in6.2 miENE (60°)15.0 mphScattered Clouds
10:00 AM84.2 °F73.4 °F70 %29.95 in6.2 miNNE (30°)16.1 mphMostly Cloudy
11:00 AM82.4 °F75.2 °F79 %29.92 in6.2 miNNE (30°)15.0 mphMostly Cloudy
12:00 PM82.4 °F71.6 °F70 %29.92 in6.2 miNE (40°)8.1 mphOvercast
1:00 PM84.2 °F73.4 °F70 %29.89 in6.2 miNNE (30°)13.8 mphOvercast
2:00 PM86.0 °F73.4 °F66 %29.86 in6.2 miNE (50°)12.7 mphScattered Clouds
3:00 PM86.0 °F73.4 °F66 %29.83 in6.2 miEast (90°)17.3 mphPartly Cloudy
4:00 PM86.0 °F73.4 °F66 %29.80 in6.2 miENE (60°)11.5 mphPartly Cloudy
5:00 PM84.2 °F73.4 °F70 %29.80 in6.2 miEast (90°)15.0 mphPartly Cloudy
6:00 PM82.4 °F75.2 °F79 %29.83 in6.2 miEast (80°)16.1 mphScattered Clouds
7:00 PM80.6 °F73.4 °F79 %29.83 in6.2 miEast (90°)12.7 mphPartly Cloudy
8:00 PM80.6 °F73.4 °F79 %29.86 in6.2 miEast (80°)12.7 mphPartly Cloudy
9:00 PM80.6 °F73.4 °F79 %29.89 in6.2 miEast (90°)11.5 mphPartly Cloudy
10:00 PM80.6 °F75.2 °F84 %6.2 miEast (80°)15.0 mphMostly Cloudy
11:00 PM80.6 °F73.4 °F79 %29.89 in6.2 miENE (70°)9.2 mphScattered Clouds
Hourly data recorded from HKML, located miles away from Malindi, Kenya







STORIES FROM OUR PARTNERS